Theta_e
326 325 325 325 325 325 325 325 325 325 324 324 324 325 325 326 326 326 327 327 328 328 328 328 328 327 328 328 328 328 327 327 327 326 326 325 325 324 323 323 322 323
325 325 326 325 325 324 325 325 325 325 324 324 324 325 324 325 325 327 326 326 327 328 328 327 327 327 327 327 327 327 326 325 325 326 325 324 324 324 324 323 323 322
325 324 325 324 324 324 324 325 324 324 324 324 324 323 323 324 324 325 326 326 326 326 326 326 326 327 327 327 327 327 326 325 324 325 325 324 323 324 324 324 323 322
325 324 325 324 324 324 325 324 323 323 322 322 322 323 324 325 325 325 325 329 326 325 325 325 326 326 327 327 326 326 326 325 326 325 325 323 323 324 323 323 323 322
324 325 325 324 324 324 323 323 323 322 322 323 323 323 324 323 323 324 324 325 324 324 324 325 325 325 326 326 326 325 324 324 324 325 324 323 322 323 322 323 322 322
325 325 325 324 324 321 320 322 323 323 323 322 323 324 323 323 324 324 324 323 323 323 323 323 323 324 325 325 325 325 324 324 324 324 324 323 321 322 323 323 322 322
325 323 324 324 323 323 322 322 323 323 323 324 323 323 323 323 323 324 324 323 323 323 323 322 323 322 323 324 324 323 323 324 323 324 324 323 323 321 323 323 323 323
325 324 323 322 322 322 322 322 322 323 323 323 323 323 324 323 323 324 324 323 323 323 322 322 322 323 322 323 323 322 322 323 324 324 324 323 323 323 322 323 323 323
324 324 324 322 321 321 321 322 322 323 323 323 323 323 323 323 323 323 323 323 323 322 322 321 322 322 321 322 322 322 321 321 323 324 324 322 322 323 323 322 321 322
321 322 323 322 320 320 321 321 322 322 323 323 323 323 323 323 323 323 323 322 322 321 321 321 320 320 320 321 321 321 321 321 321 323 323 323 323 323 323 322 322 320
321 320 320 321 320 321 321 322 322 322 322 323 323 323 323 322 322 322 322 322 322 321 320 320 319 319 319 319 319 320 321 321 321 322 322 323 323 323 325 323 322 322
322 321 321 321 320 321 322 322 322 322 323 323 323 323 322 322 322 321 322 322 322 321 321 320 320 319 319 319 318 318 319 320 320 321 321 321 321 322 323 322 321 320
321 321 322 322 320 320 321 322 322 323 323 323 323 323 322 321 321 321 321 321 321 321 320 320 319 318 318 317 317 317 318 318 318 318 318 319 319 320 320 319 318 318
318 322 321 321 321 321 321 322 322 322 323 323 323 323 322 321 320 320 319 319 319 319 319 319 318 317 316 316 316 316 317 317 317 317 317 317 318 319 318 318 318 319
314 320 322 321 321 321 321 321 322 322 322 322 321 321 320 319 318 318 316 315 315 316 315 315 316 316 314 313 313 313 315 316 316 316 317 316 316 316 317 317 317 319
311 316 321 321 321 321 321 322 322 321 321 320 320 320 319 319 317 314 315 315 313 312 311 312 312 312 311 308 309 313 314 315 316 316 316 316 315 314 314 314 314 315
309 311 315 320 320 321 321 321 321 321 320 319 319 319 318 317 315 313 312 312 312 311 309 309 308 307 299 298 300 305 313 315 315 315 316 315 314 314 313 311 311 311
307 309 311 316 320 320 321 321 321 319 318 319 318 316 316 314 313 312 310 309 309 309 308 307 305 301 296 294 295 300 307 315 315 315 314 313 312 312 312 311 311 310
306 307 309 312 318 320 320 320 320 318 317 316 316 315 313 312 310 308 307 306 307 306 305 305 303 297 298 298 297 299 302 309 315 314 313 311 311 312 312 311 311 311
305 305 306 308 312 317 318 317 317 316 313 312 312 311 310 308 307 305 304 304 304 304 302 301 300 296 297 296 296 298 300 306 313 312 312 312 312 312 311 311 311 311
303 304 305 306 307 309 313 313 311 308 308 306 306 306 305 304 304 302 301 301 301 301 301 300 298 295 295 295 297 299 301 305 314 313 312 311 310 310 310 310 311 311
302 303 303 304 304 303 303 303 303 303 302 302 301 300 300 300 300 300 300 300 301 302 302 300 299 294 295 296 298 300 303 312 313 312 310 309 308 307 306 307 308 308
302 302 302 302 302 302 301 300 300 300 300 300 298 297 296 296 296 297 298 299 299 300 300 299 299 296 295 296 298 300 305 311 310 308 307 305 304 303 304 304 304 303
301 302 301 301 301 300 300 300 299 298 298 298 296 295 295 295 296 297 297 298 297 298 298 298 298 296 295 296 298 300 305 309 307 303 301 299 298 299 300 301 303 303
300 301 301 301 299 299 299 298 297 297 297 297 297 297 296 297 297 295 296 296 297 297 299 297 296 296 294 295 297 300 305 306 304 301 299 298 298 298 299 298 298 298
299 300 300 301 300 300 299 299 299 298 297 297 297 297 296 296 296 296 295 295 296 296 296 296 295 295 294 293 295 297 300 306 304 302 300 299 300 299 299 299 299 298
Wind_Speed
5 6 7 6 6 6 7 8 7 7 7 7 6 7 7 6 6 7 7 6 6 7 6 6 6 6 5 6 6 6 6 8 7 7 8 8 7 8 7 8 7 7
4 5 6 7 6 6 7 6 6 7 6 6 6 5 5 4 5 6 7 7 6 6 6 6 6 6 6 6 6 6 6 6 7 5 7 8 7 8 8 9 9 6
7 8 9 9 9 8 7 6 6 5 5 5 4 4 5 4 6 6 6 7 7 6 6 6 6 6 7 6 6 6 6 7 6 6 7 8 6 7 7 7 6 8
6 9 10 5 4 5 4 3 3 4 3 4 6 5 5 5 6 6 6 7 7 6 6 6 7 6 7 7 7 6 7 7 7 7 6 5 5 6 6 6 6 5
4 5 6 5 3 2 4 1 5 5 5 5 5 6 6 5 5 6 6 6 6 6 6 6 6 6 6 6 6 6 6 6 5 6 6 6 5 6 5 6 6 7
3 5 4 1 2 2 7 10 8 6 6 6 7 6 6 6 6 6 6 6 5 5 6 5 6 5 6 6 6 6 6 6 6 6 6 6 5 4 5 6 7 6
4 5 5 6 10 9 7 5 4 5 6 7 5 6 5 6 6 6 6 6 7 6 7 6 6 6 5 6 6 6 5 6 6 6 7 5 6 5 5 6 6 6
5 3 3 3 2 2 4 3 3 5 6 5 7 7 6 7 7 6 6 7 7 7 7 7 7 7 6 6 6 6 6 5 6 7 6 6 6 6 5 5 5 6
4 3 2 1 1 2 4 6 6 6 5 6 6 6 6 7 7 7 7 7 7 7 7 7 7 7 6 7 7 7 7 6 6 7 7 7 6 6 6 5 5 5
4 6 5 5 3 6 9 7 6 6 6 6 6 5 7 6 7 8 7 8 8 7 8 7 7 6 7 6 8 8 7 7 7 7 7 7 7 7 6 6 6 6
7 5 0 4 7 4 5 5 6 6 5 4 1 3 6 7 7 7 7 8 8 8 8 8 8 8 7 7 6 6 7 7 7 7 7 7 7 7 6 7 7 7
6 4 2 4 5 5 5 6 6 6 5 6 9 9 5 5 7 7 8 8 7 7 8 8 8 8 8 8 8 7 6 7 7 7 7 6 5 5 5 5 6 7
6 5 3 5 4 4 5 6 6 6 7 8 6 7 9 9 6 7 7 8 8 7 7 7 7 7 7 7 7 7 7 7 7 6 5 5 5 6 6 6 6 6
10 6 4 4 4 6 7 6 6 7 8 7 7 7 7 7 7 8 6 5 6 7 6 6 6 6 6 6 7 7 7 7 7 6 6 5 5 5 6 6 7 8
10 9 5 4 5 7 7 7 7 8 9 8 6 5 4 5 3 3 7 6 4 4 5 5 6 6 5 6 6 6 6 7 7 7 7 7 6 5 4 5 5 5
9 9 8 5 5 6 7 7 8 9 9 8 8 7 7 6 4 3 5 8 7 5 3 4 4 4 6 10 8 7 7 6 6 7 7 8 7 6 4 3 3 3
10 9 9 7 6 6 7 8 9 8 7 8 7 7 7 5 4 6 5 5 7 7 6 4 4 3 4 7 8 9 7 7 8 7 7 7 8 8 7 5 4 4
11 11 9 9 6 6 8 9 8 7 8 8 7 7 6 6 5 6 5 5 5 5 6 5 4 2 4 5 6 7 7 8 8 8 7 7 7 7 6 6 6 5
11 11 10 10 8 7 6 8 8 7 7 7 7 6 6 7 5 6 5 4 6 7 5 4 4 2 2 4 6 8 11 10 7 8 8 7 6 6 6 6 6 6
12 11 10 9 10 6 5 5 6 6 4 3 4 5 6 6 5 6 5 4 4 5 5 4 3 4 2 6 8 11 12 10 8 8 8 7 7 6 6 6 5 7
12 11 9 10 9 9 5 1 2 5 5 5 5 5 5 5 6 7 5 5 6 5 5 4 4 4 7 9 11 13 14 11 9 8 8 9 8 7 7 6 5 6
11 11 11 10 11 10 11 10 9 7 6 5 7 7 7 7 6 7 6 7 6 6 6 6 6 7 8 9 13 15 15 9 9 9 9 9 8 7 7 7 7 8
11 11 11 11 10 11 11 11 10 8 7 5 10 9 10 10 7 6 6 7 9 7 7 6 6 8 9 8 12 17 13 9 10 8 9 9 8 6 7 7 6 5
12 11 11 10 10 11 10 9 9 8 8 7 9 10 11 9 8 8 9 8 10 10 7 7 7 10 10 9 8 10 13 11 9 9 9 8 7 7 7 7 9 13
11 12 12 10 10 10 10 10 9 8 6 7 8 10 10 9 11 10 10 9 10 10 13 10 8 10 13 11 12 9 9 9 9 8 10 8 9 9 7 6 6 8
11 12 12 11 10 9 10 10 8 8 7 10 8 9 10 9 10 11 12 9 10 12 10 10 10 9 11 14 12 12 8 7 8 12 9 9 8 8 9 7 6 6
Wind_Direction
196 196 192 194 200 188 187 194 199 207 197 208 213 209 201 197 172 180 182 178 184 184 181 177 170 170 171 176 178 170 178 185 187 177 183 182 186 175 180 181 179 184
265 228 206 200 202 194 200 195 198 208 206 198 216 209 201 169 180 173 175 180 184 187 177 172 171 168 168 179 180 173 173 175 183 168 174 181 181 178 184 185 188 172
235 229 229 204 200 195 196 194 197 209 206 199 204 201 188 176 173 182 178 178 179 176 175 178 174 168 166 180 178 176 173 174 181 177 173 183 169 178 187 180 174 176
238 244 250 255 238 214 208 164 198 221 202 173 199 196 180 183 178 179 179 179 173 172 174 174 179 173 172 174 171 184 175 180 182 170 174 161 175 172 173 172 170 171
259 277 289 313 336 359 59 258 222 204 201 205 192 191 186 179 172 178 181 175 171 166 167 176 172 174 171 167 168 168 169 173 167 168 165 172 172 169 168 163 167 173
237 233 250 40 24 146 186 211 212 195 192 194 202 195 192 177 173 181 178 166 170 164 166 164 167 168 165 162 161 170 167 168 173 166 166 167 163 165 157 168 165 165
204 209 211 188 201 196 214 233 241 212 197 197 183 201 180 178 177 183 179 173 165 169 167 164 165 164 163 158 164 166 175 173 165 170 170 169 155 160 167 166 170 166
243 219 216 254 297 254 218 236 245 228 217 189 193 198 178 177 180 183 185 173 170 170 166 164 167 169 163 160 165 166 173 175 168 171 176 168 164 165 168 177 170 165
255 235 227 268 279 298 249 231 232 225 211 204 205 192 187 183 177 181 186 179 173 171 168 168 170 168 166 166 171 171 172 176 176 176 175 167 173 174 173 162 165 162
245 217 183 123 123 215 225 227 226 222 196 202 205 191 192 190 176 178 182 181 176 174 172 167 162 163 167 176 174 172 171 174 179 184 182 177 178 175 166 167 167 153
268 265 155 175 206 218 231 224 221 216 184 151 105 257 228 190 178 175 183 183 180 177 171 166 167 165 170 175 177 177 173 172 178 183 185 184 180 176 172 169 166 165
277 267 231 214 214 196 196 216 221 224 219 204 189 198 213 246 191 176 184 187 183 176 172 171 170 170 172 175 174 171 170 171 171 178 184 176 170 158 151 156 152 157
287 282 232 232 225 209 218 215 216 219 219 213 197 198 190 208 219 183 191 184 181 173 174 172 171 173 172 173 171 168 170 167 167 168 154 145 139 144 146 140 141 143
320 293 248 226 232 234 226 225 205 207 217 218 201 201 194 195 201 190 184 180 173 172 172 168 165 170 178 176 172 170 167 170 161 149 141 135 139 141 145 154 158 161
321 312 280 236 220 232 233 223 210 203 207 200 186 175 153 159 149 185 159 149 141 156 158 151 162 173 173 176 171 172 169 167 156 147 142 134 128 137 148 150 163 156
318 323 305 258 228 226 232 224 216 208 196 183 183 172 165 187 164 148 183 158 150 134 129 145 159 167 181 178 173 171 173 162 146 150 142 136 134 133 121 103 89 77
328 327 322 292 247 231 230 227 222 211 195 188 179 165 157 154 166 153 178 167 157 155 148 145 145 152 158 161 156 159 154 149 149 147 140 137 140 144 144 127 85 67
334 329 326 312 265 233 226 226 222 210 199 190 172 153 151 143 167 165 158 152 138 142 147 150 153 135 152 183 155 161 157 142 140 141 142 139 137 134 132 122 114 97
333 335 331 325 295 248 224 222 216 209 197 181 176 165 145 151 157 139 142 140 140 143 142 124 140 79 169 179 156 162 146 130 129 132 131 127 127 123 126 127 126 115
347 343 337 336 327 286 228 219 211 199 157 142 136 126 132 124 120 116 111 116 112 120 117 86 83 357 118 146 152 145 126 113 114 109 102 101 98 100 107 107 114 126
349 349 344 353 352 357 346 29 73 71 78 74 84 89 100 116 129 120 105 96 90 91 93 66 13 22 121 135 142 123 110 106 106 102 99 96 90 87 88 90 85 88
352 353 355 5 12 15 28 23 19 30 53 71 83 69 58 58 42 68 84 85 78 78 85 59 31 46 106 130 129 115 105 100 102 102 102 97 88 83 81 81 88 100
0 4 6 10 19 28 31 32 27 18 31 42 75 66 62 51 27 40 50 67 68 57 65 62 47 33 80 108 121 115 105 105 100 94 93 91 83 74 78 83 80 84
4 9 14 15 26 33 30 37 44 32 25 41 69 75 66 60 59 40 40 47 63 56 41 58 50 30 53 80 90 106 121 120 116 107 100 93 89 72 82 77 75 75
6 13 17 19 24 35 43 41 37 47 39 47 63 74 70 67 65 51 40 32 49 60 49 50 50 35 36 56 72 85 107 117 117 113 109 108 108 91 67 78 63 57
11 15 18 20 22 29 48 51 44 42 40 66 49 66 74 68 71 67 57 36 37 45 40 35 39 36 26 44 60 66 79 111 122 120 120 120 116 115 107 83 74 69